www.pogodaiklimat.ru

Погода и климат >> Архив погоды >> Аргентина >> Buenos Aires Aeropuerto


АРХИВ ПОГОДЫ в Buenos Aires Aeropuerto

Время (UTC), дата Ветер
(напр.,м/с)
 
Видим.   Явления Облачность Т
(С)
Тd
(С)
f
(%)
Тe
(С)
Тes
(С)
Комфортность P
(гПа)
Po
(гПа)
Тmin
(С)
Tmax
(С)
R
(мм)
R24
(мм)
S
(см)
21 20.06 С 4 10 км 8/0
[Cs]
+11.7 +1.1 48 +10 +10 по сезону 1024.2 1023.6
00 21.06 С 5 10 км 8/0
[Cs]
+11.4 +0.6 47 +9 +9 по сезону 1024.0 1023.3 +6.1 +12.5
03 21.06 С 6 10 км 8/0
[Cs]
+10.9 +2.9 58 +8 +8 по сезону 1023.8 1023.2
06 21.06 С 5 10 км 9/0
[Cs]
+10.6 +3.1 60 +8 +8 по сезону 1023.1 1022.4
09 21.06 С 5 10 км 4/0
[Cs]
+10.1 +3.5 64 +7 +7 по сезону 1021.8 1021.2
12 21.06 С 5 10 км 9/0
[Ac As Cs]
+9.4 +3.7 68 +6 +6 по сезону 1022.9 1022.2 +9.0 +11.5
15 21.06 С 4 10 км 9/0
[Ac und]
+9.9 +5.6 75 +7 +9 прохладно 1022.2 1021.6
18 21.06 СВ 3 10 км 8/0
[Ac trans Cs]
+12.0 +6.8 70 +10 +13 прохладно 1018.9 1018.2
21 21.06 С 3 10 км 8/0
[Ac trans Cs]
+12.9 +7.4 69 +12 +12 по сезону 1017.0 1016.4
00 22.06 С 2 10 км ясно +13.2 +9.5 78 +12 +12 по сезону 1016.7 1016.0 +9.4 +13.2
03 22.06 С 4 10 км ясно +12.8 +9.9 83 +11 +11 по сезону 1015.5 1014.8
06 22.06 С 6 10 км 8/0 2000 м
[Ac As]
+13.2 +10.9 86 +11 +11 тепло 1013.2 1012.5
09 22.06 С 5 10 км 10/10 240 м
[St]
+13.3 +11.8 91 +11 +11 тепло 1011.8 1011.0
12 22.06 С 4 10 км 10/10 210 м
[St]
+14.1 +13.0 93 +13 +13 тепло 1012.2 1011.4 +12.7 +14.1
15 22.06 С 3 9000 м дымка 10/10 330 м
[St]
+15.6 +14.2 91 +15 +15 тепло 1011.9 1011.2
18 22.06 С 3 10 км 9/1 750 м
[Sc Cs]
+18.7 +15.2 80 +20 +23 тепло 1009.1 1008.4
21 22.06 С 2 10 км 8/0
[Cs]
+17.6 +15.1 85 +18 +18 тепло 1009.1 1008.4
00 23.06 С 2 10 км 8/0
[Cs]
+18.0 +15.3 84 +19 +19 тепло 1010.1 1009.4 +14.0 +19.0
03 23.06 С 2 10 км 9/0
[Cs]
+17.3 +14.6 84 +18 +18 тепло 1011.1 1010.4
06 23.06 СЗ 1 10 км 10/0
[Cs]
+16.5 +14.6 89 +17 +17 тепло 1011.8 1011.0
09 23.06 С 1 10 км 10/0
[Ac As Cs]
+16.7 +14.3 86 +18 +18 тепло 1011.5 1010.8
12 23.06 СВ 2 10 км 10/0
[Ac As Cs]
+16.7 +14.3 86 +17 +17 тепло 1012.2 1011.4 +15.8 +18.5
15 23.06 С 4 10 км 10/0
[Ac As Cs]
+18.8 +15.1 79 +20 +21 тепло 1013.3 1012.6
18 23.06 С 4 10 км 5/0
[Ac und]
+21.1 +15.8 72 +24 +26 комфорт 1011.0 1010.2
21 23.06 С 2 10 км 5/1 800 м
[Cu hum Ac cast Cs]
+18.6 +15.4 82 +20 +20 тепло 1012.1 1011.4
00 24.06 С 2 10 км зарница 5/1 1350 м
[Cb calv Ac trans]
+18.4 +15.4 83 +19 +19 тепло 1013.4 1012.8 +16.7 +22.5
03 24.06 В 2 10 км 8/0
[Ac cast Cs]
+17.8 +15.4 86 +18 +18 тепло 1014.8 1014.1
06 24.06 В 5 10 км 6/0
[Ac cast Cs]
+16.6 +15.1 91 +16 +16 тепло 1015.7 1015.0
09 24.06 ЮВ 3 9000 м дымка 9/0
[Cs]
+16.1 +14.5 90 +16 +16 тепло 1015.2 1014.5
12 24.06 ЮВ 2 8000 м дымка 9/3 1500 м
[Cu med, cong Ac cast Cs]
+16.0 +14.1 88 +16 +16 тепло 1017.1 1016.4 +15.0 +18.5
15 24.06 В 5 10 км 5/0
[Ac cast Ci fib]
+17.6 +14.5 82 +17 +19 тепло 1016.5 1015.8
18 24.06 В 3 10 км 3/0
[Ac As Cc]
+19.2 +15.0 77 +21 +24 комфорт 1014.2 1013.6
21 24.06 В 3 10 км 9/0
[Ac As Cs]
+18.1 +15.4 84 +18 +18 тепло 1013.8 1013.0
00 25.06 СВ 1 10 км 4/0
[Cs]
+18.5 +15.3 82 +20 +20 тепло 1014.9 1014.2 +15.5 +20.5
03 25.06 СЗ 1 10 км 6/0
[Cs]
+18.3 +16.0 86 +20 +20 тепло 1015.3 1014.6
06 25.06 С 1 10 км 6/0
[Ac trans Cs]
+17.7 +15.9 89 +19 +19 тепло 1015.2 1014.5
09 25.06 С 1 10 км 9/0
[Ac trans Cs]
+17.2 +15.5 90 +19 +19 тепло 1015.1 1014.4
12 25.06 СВ 2 10 км 9/0
[Ac As]
+18.2 +16.3 89 +19 +20 тепло 1016.1 1015.4 +17.0 +18.5
15 25.06 С 3 10 км 9/0
[Ac As]
+20.0 +15.7 76 +23 +25 комфорт 1016.7 1016.0
18 25.06 С 2 10 км 9/0
[Ac As]
+20.2 +16.6 80 +24 +25 комфорт 1013.8 1013.0
21 25.06 СЗ 2 10 км 10/0
[Ac As]
+20.6 +16.2 76 +25 +25 комфорт 1013.8 1013.0
00 26.06 СВ 2 10 км 4/0
[Ac As]
+19.1 +15.2 78 +21 +21 комфорт 1014.0 1013.3 +18.0 +21.0
03 26.06 С 1 10 км ясно +18.0 +14.6 81 +19 +19 тепло 1014.9 1014.2
06 26.06 С 2 10 км 4/0
[Ac As]
+16.7 +13.7 82 +17 +17 тепло 1014.3 1013.6
09 26.06 СВ 1 10 км 6/0
[Ac As]
+17.2 +13.3 78 +18 +18 тепло 1013.3 1012.6
12 26.06 СВ 2 10 км 6/0
[Ac As]
+18.0 +13.8 76 +19 +19 тепло 1013.8 1013.0 +16.6 +19.4
15 26.06 СВ 2 10 км 6/0
[Ac As Cs]
+19.0 +14.2 74 +21 +25 комфорт 1013.7 1013.0
18 26.06 СВ 3 10 км 8/0
[Ac As Cs]
+21.0 +14.6 67 +25 +27 комфорт 1010.6 1009.8
21 26.06 С 3 10 км 9/0
[Ac trans Cs]
+21.8 +14.8 64 +25 +25 комфорт 1010.5 1009.8
00 27.06 СВ 2 10 км 3/0
[Ac As]
+18.0 +14.6 81 +19 +19 тепло 1010.6 1009.8 +18.0 +21.8
03 27.06 С 3 10 км 4/0
[Ac trans]
+17.6 +14.5 82 +18 +18 тепло 1009.9 1009.2
06 27.06 С 5 10 км 10/0
[Ac As]
+18.6 +14.1 75 +19 +19 тепло 1009.5 1008.8
09 27.06 С 4 10 км 10/0 2000 м
[Ac As]
+18.8 +14.7 77 +20 +20 тепло 1008.4 1007.7
12 27.06 СЗ 4 10 км {дождь} 10/10 330 м
[St]
+18.2 +16.0 87 +18 +18 тепло 1009.2 1008.5 +17.0 +20.5 0.0
15 27.06 З 4 10 км 10/10 240 м
[St]
+16.8 +14.7 87 +16 +16 тепло 1011.4 1010.6
18 27.06 ЮЗ 4 10 км {морось} 10/10 360 м
[St]
+16.1 +12.7 80 +15 +15 тепло 1012.5 1011.8 0.0

 

Местоположение метеостанции Buenos Aires Aeropuerto (Аргентина): широта -34.56 долгота -58.41 высота над уровнем моря 6 м.

В архиве по умолчанию представлена погода в Buenos Aires Aeropuerto за последнюю неделю. Архивные данные за месяц целиком и за предыдущие месяцы, начиная с января 2011 года, Вы можете получить, выбрав интересующий диапазон дат из раскрывающегося списка и нажав кнопку "Ввод!".

Внимание! Время в таблицах - всемирное. Для получения местного времени необходимо прибавить поправку, которая в Buenos Aires Aeropuerto равна -3 ч.

Смотрите также архив погоды в соседних городах и на ближайших метеорологических станциях:

Погода в Buenos Aires (Аргентина) (7 км)
Погода в Ezeiza (Аргентина) (30 км)
Погода в Colonia (Уругвай) (55 км)
Погода в La Plata (Аргентина) (64 км)
Погода в Mercedes (Уругвай) (149 км)
Погода в Gualeguaychu (Аргентина) (174 км)
Погода в Las Flores (Аргентина) (179 км)
Погода в Melilla (Уругвай) (199 км)
Погода в Prado (Уругвай) (205 км)
Погода в Dolores (Аргентина) (206 км)

Пояснения к столбцам:

Ветер - указаны скорость ветра в м/с - средняя за 10 мин, порывы в срок и между сроками (в фигурных скобках) и направление, откуда дует ветер: С - северный, СВ - северо-восточный, В - восточный, ЮВ - юго-восточный, Ю - южный, ЮЗ - юго-западный, З - западный, СЗ - северо-западный.
Видимость - горизонтальная дальность видимости в метрах или километрах. При видимости от 1 до 10 км при отсутствии осадков обычно наблюдается дымка, при ухудшении видимости до 1 км и менее - туман. В сухую погоду видимость может ухудшаться дымом, пылью или мглою.
Явления - указаны атмосферные явления, наблюдавшиеся в срок или в последний час перед сроком; фигурными скобками обозначены явления, наблюдавшиеся между сроками (за 1-3 часа до срока); квадратными скобками обозначены град или гололедные отложения с указанием их диаметра в мм.
Облачность - указаны через наклонную черту общая и нижняя облачность в баллах и высота нижней границы облаков в метрах; квадратными скобками обозначены формы облаков: Ci - перистые, Cs - перисто-слоистые, Cc - перисто-кучевые, Ac - высококучевые, As - высокослоистые, Sc - слоисто-кучевые, Ns - слоисто-дождевые, Cu - кучевые, Cb - кучево-дождевые. Подробнее классификацию облаков см. в Атласе облаков (PDF).
T - Температура воздуха - температура, измеренная на высоте 2 м над землей.
Td - Температура точки росы - температура, при понижении до которой содержащийся в воздухе водяной пар достигнет насыщения.
f - Относительная влажность воздуха - влажноcть воздуха, измеренная на высоте 2 м над землей.
Te - Эффективная температура - температура, которую ощущает одетый по сезону человек в тени. Характеристика душности погоды. При расчете учитывается влияние влажности воздуха и скорости ветра на теплоощущения человека.
Tes - Эффективная температура на солнце - температура, которую ощущает человек, с поправкой на солнечный нагрев. Характеристика знойности погоды. Зависит от высоты солнца над горизонтом, облачности и скорости ветра. Ночью, в пасмурную погоду, а также при ветре 12 м/с и более поправка равна нулю.
P - Атмосферное давление - приведенное к уровню моря атмосферное давление.
Po - Атмосферное давление - измеренное на уровне метеостанции атмосферное давление.
Tmin - Минимальная температура - минимум температуры воздуха на высоте 2 м над землей.
Tmax - Максимальная температура - максимум температуры воздуха на высоте 2 м над землей.
R - Количество осадков - Количество выпавших осадков за период времени, мм. При наведении курсора мыши на число - период времени, за который выпало указанное количество осадков.
R24 - Количество осадков - Количество выпавших осадков за 24 часа, мм.
S - Снежный покров - Высота снежного покрова, см. При наведении курсора мыши на число - состояние снежного покрова и степень покрытия местности в баллах.